Weather - Helsinki Query any day in the database

Current weather  

Weather data for a selected day (2006-01-01 -2020-10-31)
Enter date:     <-     scroll days         ->
day curves
Low temperature°C -31.009:20
High temperature°C -7.023:50
Low wind chill°C -35.208:50
Average temperature°C -21.7 
High wind speed (10 min) m/s 6.022:50
Low pressurehPa 1038.023:50
High pressurehPa 1042.000:20
Low R.H% 7406:50
High R.H% 10011:20
Day weather data as a table
Date Time Temp
°C
Chill
°C
Pressure
hPA
Wind
m/s
Hum
%
Precip
mm
2012-02-05 23:50:00 -7.0  -13.7  1038.0 5.0 85 -
2012-02-05 22:50:00 -8.0  -15.6  1038.0 6.0 85 -
2012-02-05 22:20:00 -9.0  -16.9  1038.0 6.0 92 -
2012-02-05 21:50:00 -9.0  -16.9  1038.0 6.0 85 -
2012-02-05 21:20:00 -9.0  -16.9  1038.0 6.0 92 -
2012-02-05 20:50:00 -9.0  -16.9  1038.0 6.0 85 -
2012-02-05 20:20:00 -9.0  -16.2  1038.0 5.0 85 -
2012-02-05 19:50:00 -10.0  -16.6  1038.0 4.0 85 -
2012-02-05 19:20:00 -11.0  -17.8  1038.0 4.0 92 -
2012-02-05 18:50:00 -14.0  -21.5  1038.0 4.0 92 -
2012-02-05 18:20:00 -14.0  -22.5  1038.0 5.0 84 -
2012-02-05 17:20:00 -16.0  -22.7  1038.0 3.0 84 -
2012-02-05 16:50:00 -17.0  -23.9  1038.0 3.0 84 -
2012-02-05 15:50:00 -16.0  -21.1  1038.0 2.0 77 -
2012-02-05 15:20:00 -17.0  -23.9  1038.0 3.0 84 -
2012-02-05 14:50:00 -18.0  -25.1  1038.0 3.0 84 -
2012-02-05 14:20:00 -17.0  -23.9  1039.0 3.0 77 -
2012-02-05 13:20:00 -21.0  -26.9  1039.0 2.0 83 -
2012-02-05 12:50:00 -23.0  -29.3  1039.0 2.0 83 -
2012-02-05 12:20:00 -23.0  -26.3  1039.0 1.0 91 -
2012-02-05 11:20:00 -26.0  -26.0  1039.0 0.0 100 -
2012-02-05 10:50:00 -28.0  -28.0  1039.0 0.0 91 -
2012-02-05 10:20:00 -28.0  -31.9  1039.0 1.0 91 -
2012-02-05 09:50:00 -30.0  -34.1  1039.0 1.0 82 -
2012-02-05 09:20:00 -31.0  -31.0  1039.0 0.0 82 -
2012-02-05 08:50:00 -31.0  -35.2  1039.0 1.0 82 -
2012-02-05 08:20:00 -31.0  -31.0  1039.0 0.0 74 -
2012-02-05 07:50:00 -31.0  -31.0  1039.0 0.0 74 -
2012-02-05 07:20:00 -31.0  -35.2  1039.0 1.0 74 -
2012-02-05 06:50:00 -31.0  -35.2  1039.0 1.0 74 -
2012-02-05 05:50:00 -30.0  -34.1  1039.0 1.0 75 -
2012-02-05 05:20:00 -30.0  -34.1  1039.0 1.0 75 -
2012-02-05 04:50:00 -30.0  -30.0  1039.0 0.0 75 -
2012-02-05 04:20:00 -30.0  -34.1  1039.0 1.0 82 -
2012-02-05 03:50:00 -30.0  -34.1  1040.0 1.0 75 -
2012-02-05 03:20:00 -29.0  -33.0  1040.0 1.0 75 -
2012-02-05 02:50:00 -27.0  -30.8  1040.0 1.0 75 -
2012-02-05 02:20:00 -25.0  -28.5  1040.0 1.0 83 -
2012-02-05 01:50:00 -27.0  -30.8  1041.0 1.0 75 -
2012-02-05 01:20:00 -26.0  -32.8  1041.0 2.0 75 -
2012-02-05 00:50:00 -27.0  -33.9  1041.0 2.0 75 -
2012-02-05 00:20:00 -25.0  -31.6  1042.0 2.0 76 -
Unit conversions: